Terminal Aerodrome Forecast
Issued by NWS St Louis, MO

Home | Current Version | Previous Version | Text Only | Print | Product List | Glossary On
Versions: 1 2 3 4 5 6 7 8 9 10 11 12 13 14 15 16 17 18 19 20 21 22 23 24 25 26 27 28 29 30
000
FTUS43 KLSX 181501 AAA
TAFSTL
TAF AMD
KSTL 181501Z 1815/1918 29006KT P6SM FEW250
     FM190400 VRB03KT P6SM BKN100 PROB30 1904/1909 5SM -TSRA
      BKN040CB
     FM191000 VRB03KT P6SM SCT200=

USA.gov is the U.S. government's official web portal to all federal, state and local government web resources and services.